Regional Weather Roundup
Issued by NWS San Diego, CA

Home | Current Version | Previous Version | Text Only | Print | Product List | Glossary On
Versions: 1 2 3 4 5 6 7 8 9 10 11 12 13 14 15 16 17 18 19 20 21 22 23 24 25 26 27 28 29 30 31 32 33 34 35 36 37 38 39 40 41 42 43 44 45 46 47 48 49 50
000
ASUS46 KSGX 230310
RWRSGX

SAN DIEGO HOURLY WEATHER ROUNDUP
NATIONAL WEATHER SERVICE SAN DIEGO CA
700 PM PST MON DEC 22 2014

NOTE: "FAIR" INDICATES FEW OR NO CLOUDS BELOW 12,000 FEET WITH NO
SIGNIFICANT WEATHER AND/OR OBSTRUCTIONS TO VISIBILITY.

CAZ042-043-060-061-PZZ750-775-230400-

GREATER SAN DIEGO AREA

CITY           SKY/WX    TMP DP  RH WIND       PRES   REMARKS
LINDBERGH FLD  CLEAR     63  58  83 CALM      30.00R
POINT LOMA       N/A     59  56  91 NW9         N/A
NATIONAL CITY    N/A     63  57  80 CALM      30.00R
CHULA VISTA      N/A     61  58  89 CALM      29.93R
IMPERIAL BEACH PTCLDY    57  55  93 CALM      30.00R
BROWN FIELD    CLEAR     59  54  83 CALM      29.99R
MIRAMAR MCAS   CLEAR     58  53  84 E5        29.98R
MONTGOMERY FLD CLEAR     61  57  87 N3        29.99R FOG

$$

NORTH SAN DIEGO COUNTY

CITY           SKY/WX    TMP DP  RH WIND       PRES   REMARKS
CAMP PENDLETON CLEAR     56  52  86 CALM      29.98R
OCEANSIDE AP   FOG       59  58  96 E3        29.97R VSB 1/4
OCEANSIDE HBR    N/A     59  58  97 E5        30.01R
VISTA            N/A     57  53  86 CALM      29.96
CARLSBAD       CLEAR     59  56  89 CALM      29.97R FOG
DEL MAR          N/A     59  57  92 CALM      30.01R
LA JOLLA SCRIP   N/A     60  58  93 CALM      29.97R
FALLBROOK        N/A     59  59  98 CALM      30.00R
ESCONDIDO        N/A     62  54  75 CALM      30.01R
SAN MARCOS       N/A     60  54  80 CALM      29.97R
POWAY            N/A     56  51  84 CALM      30.02R

$$

EAST SAN DIEGO COUNTY

CITY           SKY/WX    TMP DP  RH WIND       PRES   REMARKS
RAMONA         CLEAR     53  49  86 CALM      30.01R
SANTEE LAKES     N/A     58  51  80 CALM      30.01R
LA MESA          N/A     62  53  73 CALM      29.93
JAMUL            N/A     57  51  80 CALM      30.00R
DESCANSO N       N/A     54  37  54 CALM      29.93R
MT. LAGUNA OBS   N/A     58  23  25 N5        29.74R
CAMPO            N/A     52  41  66 NE3       30.02R

$$

ORANGE COUNTY AND THE LOS ANGELES BASIN

CITY           SKY/WX    TMP DP  RH WIND       PRES   REMARKS
JOHN WAYNE AP  CLEAR     63  55  75 S3        29.96S
LAGUNA BEACH     N/A     57  55  91 CALM      29.93S
LAKE FOREST FR   N/A     60  51  72 CALM      29.89R
SANTA ANA        N/A     60  55  82 CALM      29.92S
HUNTINGTON BCH   N/A     58  57  96 CALM      29.98S
LOS ALAMITOS   FOG       58  58 100 E2        29.97R VSB 3/4
FULLERTON      CLEAR     62  56  80 SE3       29.96R
LONG BEACH     FOG       60  59  96 E3        29.97R VSB 1/4
L.A. AP        PTCLDY    58  57  97 CALM      29.96S FOG
L.A. DOWNTOWN  CLEAR     61  55  81 CALM      29.96R HAZE

$$

THE INLAND EMPIRE

CITY           SKY/WX    TMP DP  RH WIND       PRES   REMARKS
CORONA         CLEAR     57  55  93 CALM      29.99R
CHINO          CLEAR     59  52  77 CALM      29.99R
ONTARIO        CLEAR     65  50  58 CALM      29.98R
SAN BERNARDINO CLEAR    N/A N/A N/A CALM      30.00R
RIVERSIDE AP   CLEAR     63  51  65 SE3       29.99R
RIV CYN CREST    N/A     64  58  81 S1          N/A
MORENO VALLEY    N/A     63  53  68 CALM      29.20R
MARCH ARB      CLEAR     55  51  85 SE2       30.01R
HORSETHIEF CYN   N/A     60  43  54 S5        29.99R
PERRIS           N/A     66  51  56 E2        30.00R
MENIFEE          N/A     59  51  76 CALM      30.05R
HEMET EAST       N/A     60  43  55 CALM      30.02R
FRENCH VALLEY  FAIR      59  52  77 CALM      30.01R
TEMECULA         N/A     62  55  77 CALM      29.96R

$$

SAN BERNARDINO AND RIVERSIDE COUNTY MOUNTAINS

CITY           SKY/WX    TMP DP  RH WIND       PRES   REMARKS
BIG BEAR AP    CLEAR     36  25  64 CALM      30.26R
PINE COVE        N/A     55  27  34 CALM      29.97R

$$

SOUTHERN DESERT INCLUDING THE COACHELLA VALLEY

CITY           SKY/WX    TMP DP  RH WIND       PRES   REMARKS
PALM SPRINGS   CLEAR     64  49  57 NW3       29.99R
PALM DESERT      N/A     61  51  70 CALM      29.78R
THERMAL        CLEAR     56  46  69 NW7       29.94R
BLYTHE         CLEAR     66  42  41 N14       29.93R
IMPERIAL AP    CLEAR     60  49  66 W6        29.94R
EL CENTRO NAS  CLEAR     60  48  64 SW6       29.94R
YUMA AZ        CLEAR     64  45  49 CALM      29.93R
MEXICALI       CLEAR     63  48  59 W7        29.93

$$

UPPER DESERT

CITY           SKY/WX    TMP DP  RH WIND       PRES   REMARKS
VICTORVILLE AP CLEAR     52  45  76 S5        30.12R
HESPERIA         N/A     53  46  77 CALM      30.25R
APPLE VALLEY     N/A     54  44  68 CALM      30.17R
PALMDALE       CLEAR     53  43  68 NW9       30.11R
LANCASTER      CLEAR     51  43  74 W10       30.11R
EDWARDS AFB    CLEAR     48  46  90 SE2       30.09R
DAGGETT        CLEAR     60  44  55 SW9       30.08R
29 PALMS N     CLEAR     61  40  45 NW8       30.13R
NEEDLES        CLEAR     64  39  39 W9        29.94S

$$

REGIONAL REPORTS

CITY           SKY/WX    TMP DP  RH WIND       PRES   REMARKS
SANTA BARBARA  CLEAR     76  39  26 N12G23    29.93S
SANDBERG       CLEAR     49  40  71 VRB7G16   30.17R
MT. WILSON       N/A     54  21  28 MISG        N/A
LAS VEGAS NV   CLEAR     68  36  30 W8        29.99R
PHOENIX AZ     CLEAR     58  44  60 CALM      29.92R
TIJUANA        CLEAR     59  50  72 N5        30.02
ENSENADA NW      N/A     61  32  33 CALM      29.96S

$$

OFFSHORE ISLANDS

CITY           SKY/WX    TMP DP  RH WIND       PRES   REMARKS
CATALINA ARPT  CLEAR     63  41  44 NW7       30.01R
SAN NICOLAS IS CLEAR    N/A N/A N/A W15       29.97R

$$

MARINE AND OFFSHORE BUOY REPORTS

STATION/POSITION SKY/WX   TEMP    WIND        PRES    SWELL
                          AIR SEA DIR/SP/G            HT/PER/DIR
                          (F)     (DEG/KT/KT) (MB)    (FT/S/D)
TANNER BANKS               64 64  330/ 14/ 17 1014.9R  10/310/14
S CLEMENTE BASIN           64 65  280/  8/ 10 1014.9R   7/290/14
SAN NICOLAS IS.               62                N/A     7/300/13
SO. S. ROSA ISLA           63 62  330/ 21/ 25 1014.4R  10/14
W. S. BARBARA CH           64 62  330/ 29/ 35 1014.0R   7/310/14
S. MONICA BASIN            63 64  140/  4/  6 1014.8R   5/270/12
S PEDRO CHANNEL               64                N/A     3/280/14
DANA POINT                    64                N/A     3/270/14
CMP PENDLETON NS              65                N/A     2/230/14
OCEANSIDE OFFSHR              65                N/A     3/240/14
TORREY PINES OTR              65                N/A     5/280/14
LA JOLLA 1                 62 64   40/  2/  2 1015.5R
MISSION BAY BUOY              65                N/A     5/270/14
SAN DIEGO BAY                 64              1016.1R
POINT LOMA SOUTH              65                N/A     3/270/14

$$



USA.gov is the U.S. government's official web portal to all federal, state and local government web resources and services.